Location: Fontevrault
(47.1823°N, 0.0493°E)
Time: 20:54:54
(UTC+00:00)

Daily predictions for brighter satellites

Satellite Brightness Start Highest point End
(mag) Time Altitude Azimuth Time Altitude Azimuth Time Altitude Azimuth
Cosmos 1727 Rocket 4.4 20:28:52 10° SSE 20:34:50 47° E 20:40:49 10° NNE
Cosmos 1624 Rocket 4.3 20:32:06 10° SSW 20:37:24 75° WNW 20:42:44 10° NNE
Cosmos 1605 Rocket 4.1 20:32:13 10° N 20:38:40 87° E 20:45:03 10° S
Cosmos 1378 Rocket 3.7 20:36:06 10° S 20:40:27 84° W 20:44:51 10° N
Meteor 2-10 4.3 20:35:55 10° NNW 20:40:57 69° W 20:46:02 10° S
Cosmos 220 Rocket 4.0 20:36:58 10° SSW 20:41:17 86° ESE 20:45:34 10° NNE
Cosmos 1726 2.1 20:37:56 10° N 20:41:35 89° W 20:45:13 10° S
Cosmos 1844 Rocket 3.7 20:36:37 10° NNW 20:41:51 37° NE 20:47:05 10° ESE
OBJECT-B 3.6 20:40:06 10° SW 20:42:06 15° W 20:44:06 10° NW
BREEZE-M DEB (TANK) 3.2 20:40:01 10° SSW 20:42:07 27° SE 20:45:28 10° ENE
Cosmos 1758 3.4 20:39:50 10° N 20:43:48 63° E 20:47:43 10° SSE
Cosmos 2285 Rocket 4.1 20:37:53 10° SSW 20:44:18 74° ESE 20:50:43 10° NNE
Okean 2 3.5 20:41:58 10° S 20:46:04 84° WNW 20:50:10 10° N
Meteor 2-20 4.5 20:43:01 10° S 20:49:04 73° E 20:55:09 10° NNE
Cosmos 292 Rocket 3.8 20:45:08 10° S 20:49:56 67° ESE 20:54:44 10° NNE
Cosmos 1908 4.4 20:47:38 10° N 20:51:04 29° ENE 20:54:25 10° SE
Lacrosse 5 rocket 2.7 20:51:30 10° SSE 20:53:32 14° SE 20:55:33 10° E
Cosmos 2263 Rocket 3.0 20:49:26 10° NW 20:54:53 48° WSW 21:00:19 10° S
SPOT 5 3.6 20:53:15 10° SE 20:58:04 42° ENE 21:02:44 10° N
Cosmos 1707 2.8 20:55:53 10° S 20:59:45 86° W 21:03:41 10° N
Cosmos 1452 Rocket 3.6 20:56:25 10° S 21:01:38 64° ESE 21:06:52 10° NNE
In-Cosmos 22 4.0 21:02:17 10° S 21:07:32 73° E 21:12:49 10° NNE
Cosmos 1459 Rocket 4.2 21:03:06 10° N 21:09:03 56° ENE 21:14:34 12° SSE
Resurs 01 Rocket 2.8 21:05:33 10° SSW 21:09:41 39° W 21:13:51 10° NNW
Terra 2.6 21:06:08 12° SE 21:10:11 38° ENE 21:14:35 10° N
SPOT 1/Viking Rocket 3.7 21:05:35 10° S 21:10:43 76° WSW 21:15:54 10° NNW
Cosmos 1850 Rocket 4.1 21:05:48 10° NNW 21:11:09 79° ENE 21:15:54 13° SSE
Cosmos 1953 2.6 21:07:43 10° N 21:11:45 56° ENE 21:15:10 14° SSE
Lacrosse 5 2.4 21:06:54 10° WNW 21:11:46 48° SW 21:16:06 13° SSE
Cosmos 2333 Rocket 3.4 21:09:00 12° SSE 21:12:55 23° ESE 21:17:17 10° NE
Cosmos 1025 Rocket 3.8 21:10:01 12° SSE 21:13:34 35° E 21:17:34 10° NNE
CARTOSAT-1 3.6 21:10:58 11° SSE 21:15:02 79° ENE 21:19:22 10° N
USA 245 4.2 21:11:49 10° S 21:16:28 75° WSW 21:22:10 10° NNW
NOSS 3-2 (C) 3.8 21:11:54 10° SW 21:17:34 70° NW 21:24:10 10° NE
Geosat 4.0 21:15:06 13° SSE 21:19:36 88° WSW 21:24:41 10° NNW
FALCON 9 DEB 3.5 21:17:47 10° SSW 21:21:01 40° SE 21:24:15 10° ENE
Spot 2 Rocket 3.6 21:17:52 11° SSE 21:22:46 82° WSW 21:27:52 10° NNW
Cosmos 1975 Rocket 3.0 21:19:02 10° S 21:23:23 82° E 21:27:47 10° N
ATLAS 3B R/B 3.4 21:18:50 10° S 21:24:26 31° ESE 21:30:09 10° NE
Cosmos 1844 3.9 21:20:15 10° NNW 21:25:47 61° ENE 21:30:18 16° SE
Cosmos 1331 Rocket 4.3 21:22:38 10° S 21:27:39 49° ESE 21:32:44 10° NNE
Cosmos 1461 2.9 21:23:42 10° NW 21:27:59 76° NE 21:30:58 18° SE
Cosmos 2219 Rocket 3.3 21:24:38 15° SSE 21:28:04 25° ESE 21:32:38 10° NE
ERS-1 Rocket 3.0 21:24:38 14° SSE 21:28:58 79° ENE 21:34:02 10° NNW
Cosmos 1626 2.5 21:27:13 16° SSE 21:29:51 46° E 21:33:25 10° NNE
Aureole 1 Rocket 4.1 21:28:36 10° NNW 21:34:18 82° ENE 21:40:17 16° SSE
SL-8 R/B 3.6 21:32:56 10° WNW 21:37:45 80° SSW 21:41:58 13° ESE
BREEZE-M DEB (TANK) 2.1 21:34:48 10° WNW 21:38:14 53° SW 21:39:08 28° SSE
Cosmos 2123 Rocket 4.3 21:34:02 14° SSE 21:39:17 54° E 21:45:25 10° NNE
BREEZE-M DEB (TANK) 2.1 21:37:20 10° SW 21:39:41 40° SE 21:44:01 10° ENE
KORONAS-FOTON 4.0 21:36:45 10° SSW 21:40:32 70° W 21:44:20 10° N
ATLAS CENTAUR R/B 2.2 21:38:52 10° NNW 21:43:01 46° NE 21:46:25 16° ESE
Cosmos 1741 Rocket 4.4 21:38:02 10° NNW 21:43:14 60° WSW 21:47:27 16° S
USA 215 3.7 21:39:40 10° ENE 21:45:41 38° SE 21:51:39 10° SSW
ARIANE 5 R/B 3.3 21:43:35 13° S 21:47:24 51° W 21:51:48 10° NNW
SL-16 R/B 3.2 21:42:38 10° SW 21:48:07 48° NW 21:53:37 10° NNE
Cosmos 2100 Rocket 4.3 21:42:43 10° NNW 21:49:05 71° W 21:54:46 13° S
Cosmos 2360 Rocket 2.2 21:43:49 10° SSW 21:49:29 87° ESE 21:55:10 10° NNE
Cosmos 2322 Rocket 2.9 21:45:15 10° SW 21:50:52 58° WNW 21:56:31 10° NNE
Centaur D AC-29 4.0 21:28:31 10° WSW 21:54:40 25° SW 21:59:44 16° S
Cosmos 1455 4.5 21:58:47 10° NE 22:00:49 14° ENE 22:02:38 11° E
Cosmos 1674 3.9 21:57:44 10° SW 22:01:14 39° WNW 22:04:45 10° N
Cosmos 389 Rocket 4.2 21:59:32 10° NNE 22:02:11 21° ENE 22:03:30 17° E
COSMOS 2428 3.3 22:01:02 21° SSE 22:04:22 40° ESE 22:09:41 10° NE
CENTAUR R/B 4.1 21:59:10 10° WSW 22:05:02 40° NNW 22:11:58 10° NE
Cosmos 1544 Rocket 3.9 22:01:04 10° NNW 22:05:30 61° W 22:08:31 19° S
H-2A R/B 3.3 22:02:39 10° NNE 22:06:46 79° ESE 22:09:24 21° S
Cosmos 2322 3.8 22:02:41 15° S 22:07:16 59° ESE 22:12:50 10° NNE
CZ-4B DEB 4.5 22:06:05 29° S 22:07:31 63° WSW 22:10:41 10° NNW
Cosmos 1300 2.6 22:05:00 10° N 22:08:49 74° E 22:10:36 30° SSE
Cosmos 1455 Rocket 4.5 22:06:21 10° NNW 22:10:22 34° W 22:14:02 12° SSW
Cosmos 2016 Rocket 4.0 22:05:28 10° NNW 22:11:34 76° W 22:16:04 19° S
Cosmos 2278 Rocket 3.3 22:08:59 10° NNW 22:14:10 35° NE 22:18:27 14° ESE
USA 267 3.8 22:13:45 10° ESE 22:20:09 59° NNE 22:26:34 10° NW
Cosmos 1346 Rocket 3.6 22:19:17 28° SE 22:20:30 35° E 22:24:10 10° NNE
Cosmos 1725 Rocket 4.1 22:16:49 10° NNW 22:22:59 72° W 22:27:17 21° S
Cosmos 1844 Rocket 3.5 22:20:31 10° NW 22:25:49 42° WSW 22:29:19 20° SSW
Meteor 2-5 Rocket 3.6 22:24:44 21° S 22:28:36 88° E 22:34:14 10° NNE
Cosmos 1340 3.2 22:26:36 20° SSW 22:29:01 54° WNW 22:32:44 10° N
Cosmos 968 Rocket 3.5 22:25:41 10° NNW 22:30:50 77° ENE 22:33:31 29° SSE
Lacrosse 5 rocket 1.0 22:28:30 10° SW 22:32:10 81° NW 22:35:45 10° NE
Cosmos 405 3.8 22:31:15 10° NNW 22:34:32 41° W 22:35:50 28° SW
Cosmos 1536 Rocket 4.1 22:35:24 19° SSW 22:38:26 57° WNW 22:42:50 10° N
GEOS 3 Rocket 3.6 22:36:02 26° SE 22:39:12 89° SW 22:44:36 10° NW
Terra 3.3 22:45:01 15° SW 22:48:01 28° W 22:52:07 10° NW
DNEPR-1 R/B 3.9 22:45:02 10° NW 22:49:08 50° WSW 22:50:34 35° S
Cosmos 1980 4.3 22:50:46 29° SSE 22:52:45 38° ESE 22:57:59 10° NE
FALCON 9 DEB 3.3 22:56:14 46° E 22:56:14 46° E 22:58:42 10° ENE
Cosmos 2333 Rocket 2.6 22:50:59 10° SW 22:56:41 64° WNW 23:02:24 10° NNE
FALCON 9 DEB 4.3 22:54:36 10° W 22:57:53 45° NNW 23:01:12 10° NE
Cosmos 1943 Rocket 4.4 22:54:11 10° N 22:58:05 19° NE 23:01:58 10° E
Cosmos 2228 3.1 22:55:19 10° NNW 22:59:42 71° W 23:01:23 37° S
BREEZE-M DEB (TANK) 3.2 22:54:42 10° SW 23:04:17 51° SSE 23:07:28 10° E
Okean 1-7 Rocket 4.4 23:06:13 31° SE 23:07:27 37° E 23:11:34 10° NNE
Cosmos 2219 Rocket 2.8 23:06:18 11° SW 23:11:38 57° WNW 23:17:15 10° NNE
Uosat 12 SS-18 rocket 4.2 23:10:43 23° SW 23:13:30 81° NW 23:18:35 10° NE
ATLAS 3B R/B 3.0 23:08:09 10° SW 23:14:40 64° NW 23:21:26 10° NE
Meteor 2-10 Rocket 4.0 23:11:48 10° NNW 23:16:43 49° W 23:18:55 29° SSW
Meteor 1-24 Rocket 4.4 23:13:06 18° SW 23:16:50 46° WNW 23:22:06 10° N
Cosmos 1503 Rocket 4.0 23:11:30 10° NNW 23:16:56 85° ENE 23:19:20 34° SSE
FALCON 9 DEB 3.0 23:16:35 32° WSW 23:17:48 71° NNW 23:20:54 10° ENE
FALCON 9 DEB 2.8 23:19:50 64° WSW 23:20:14 83° NNW 23:23:23 10° ENE
ATLAS CENTAUR R/B 2.8 23:18:03 10° WNW 23:21:45 26° WSW 23:22:33 25° SW
SL-16 R/B 3.6 23:20:20 20° ESE 23:21:47 22° E 23:26:03 10° NE
Iridium 2 3.9 23:22:59 42° SW 23:23:59 59° W 23:27:42 10° N
Cosmos 2058 Rocket 3.0 23:19:41 10° N 23:24:10 83° E 23:25:34 44° SSE
Cosmos 2237 Rocket 2.2 23:24:08 34° S 23:26:31 65° ESE 23:32:05 10° NNE
FALCON 9 DEB 3.2 23:25:34 30° W 23:26:55 64° NNW 23:30:01 10° ENE
ATLAS CENTAUR R/B 3.4 23:25:37 33° S 23:27:50 48° ESE 23:39:20 10° NE
USA 215 3.4 23:22:29 10° NE 23:29:02 77° NNW 23:35:34 10° WSW
Cosmos 1867 3.8 23:25:34 10° NW 23:30:56 56° WSW 23:32:53 36° S
Spot 4 4.4 23:31:30 32° SSW 23:33:14 46° W 23:37:51 10° NNW
Cosmos 1726 Rocket 4.1 23:29:53 10° NNW 23:34:12 48° W 23:35:38 35° SW
Thor Agena Rocket 4.2 23:29:40 10° NNE 23:34:41 43° E 23:36:27 32° SE
GP-B 4.2 23:31:34 10° NNE 23:35:38 34° E 23:37:02 27° ESE
Cosmos 2369 Rocket 4.4 23:32:29 10° N 23:36:45 21° NE 23:41:01 10° E
Cosmos 1455 2.6 23:33:01 10° NNW 23:36:46 51° W 23:37:30 43° SW
Cosmos 389 Rocket 3.9 23:33:57 10° NW 23:36:48 25° W 23:37:17 24° WSW
Meteor 1-21 Rocket 4.2 23:39:34 35° S 23:42:03 85° E 23:47:48 10° NNE
Meteor 1-4 Rocket 2.9 23:40:56 10° N 23:44:20 48° ENE 23:44:51 44° ESE
COSMOS 2428 3.9 23:43:19 10° WSW 23:48:40 39° NW 23:54:02 10° NNE
NOSS 0 Rocket 4.1 23:45:22 22° SW 23:49:30 72° WNW 23:55:46 10° NNE
ALOS 2 3.0 23:49:12 39° SW 23:50:23 50° W 23:54:41 10° NNW
Cosmos 1892 Rocket 4.3 23:49:28 30° SW 23:51:13 46° WNW 23:55:31 10° N
SJ 16-02 2.5 23:50:39 10° N 23:54:45 37° ENE 23:57:01 22° ESE
